STARLINK-5151 (54066 NORAD) Tracking and Keplerian Element Data

This shows tracking and keplerian element data for the satellite.

Feedback or suggestion? Click here.




ElementValue
Catalog54066
NameSTARLINK-5151
Epoch Orbit548
Epoch Day325.33334491
Epoch Year2022
RAAN352.6545
Inclination53.2171
Eccentricity0.0001679
Argument of Perigee21.5576
Mean Anonmoly168.1423
Mean Motion15.479095
Decay Rate-0.01208397
L11 54066U 22136R 22325.33334491 -.01208397 00000+0 -25067-1 0 9991
L22 54066 53.2171 352.6545 0001679 21.5576 168.1423 15.47909500 5483



Live tracking and technical data element details for STARLINK-5151 (NORAD 54066). STARLINK-5151 can be tracked NOW for your location showing map with azimuth and elevation plus other details from your city location.







IsCatalogInMostPopularTable: catalog: 54066, numindb: 1
Update: records affected: 1



GetName: 54066 STARLINK-5151

Hit Count: updated at: Mon, 28 Nov 2022 22:03:50 GMT